{"data":{"norad_id":59608,"intl_designator":"2024-080H","name":"STARLINK-31585","alt_names":[],"object_type":"PAYLOAD","status":"ACTIVE","operator":null,"country":"US","launch_date":"2024-04-28","launch_site_code":"AFETR","launch_vehicle":null,"mission":null,"orbit_class":"UNKNOWN","rcs_meters":null,"size_class":null,"mass_kg":null,"dimensions":null,"purposes":["comms"],"wikipedia_slug":null,"has_3d_model":false,"image_url":null,"decayed_at":null,"tle_current":{"epoch":"2026-09-21T07:05:15.704160Z","epoch_age_seconds":99552,"freshness":"FRESH","line1":"1 59608U 24080H   26264.29532065  .00000975  00000+0  44966-4 0  9997","line2":"2 59608  43.0060   9.2819 0001840 287.0715  72.9935 15.27579239134503","mean_motion":15.27579239,"eccentricity":0.000184,"inclination_deg":43.006,"raan_deg":9.2819,"arg_perigee_deg":287.0715,"mean_anomaly_deg":72.9935,"bstar":4.4966e-5,"rev_number":13450,"period_min":94.266795674879,"perigee_km":481.78891608741,"apogee_km":484.31383340932,"semimajor_km":6861.1883747484,"source":"CELESTRAK","updated_at":"2026-09-22T09:00:49.010686Z"}}}